SCP
0 0 0 0 0 0 0 0 -0 -0 -0 0 0 0 0 0 0 0 0 0 0 0 -0 -0 0 0 0 0 0 0 0 0 0 0 0 0 0 0 0 0 0 0 0 0
0 0 0 0 0 0 0 0 0 -0 -0 0 0 0 0 0 0 0 0 0 0 0 -0 -0 0 0 0 0 0 0 0 0 0 0 0 0 0 0 0 0 0 0 0 0
0 0 0 0 0 0 0 0 0 0 -0 0 0 0 0 0 0 0 0 0 0 -0 -0 -0 -0 -0 0 0 0 0 0 0 0 0 0 0 0 0 0 0 0 0 0 0
0 0 0 0 0 0 0 0 0 0 -0 0 0 0 0 0 0 0 0 0 0 -0 -0 -0 -0 -0 0 0 0 0 0 0 0 0 0 0 0 0 0 0 0 0 0 0
0 0 0 0 0 0 0 0 0 0 0 0 0 0 0 0 0 0 0 0 0 -0 -0 -0 -0 -0 0 0 0 0 0 0 0 0 0 0 0 0 0 0 0 0 0 0
0 0 0 0 0 0 0 0 0 0 0 0 0 0 0 0 0 0 0 0 0 0 0 0 0 0 0 0 0 0 0 0 0 0 0 0 0 0 0 0 0 0 0 0
0 0 0 0 0 0 0 0 0 0 0 0 0 0 0 0 0 0 0 0 0 0 0 0 0 0 0 0 0 0 0 0 0 0 0 0 0 0 0 0 0 0 0 0
0 0 0 0 0 0 0 0 0 0 0 0 0 0 0 0 0 0 0 0 0 0 0 0 0 0 0 0 0 0 0 0 0 0 0 0 0 0 0 0 0 0 0 0
0 0 0 0 0 0 0 0 0 0 0 0 0 0 0 0 0 0 0 0 0 0 0 0 0 0 0 0 0 0 0 0 0 0 0 0 0 0 0 0 0 0 0 0
0 0 0 0 0 0 0 0 0 0 0 0 0 0 0 0 0 0 0 0 0 0 0 0 0 0 0 0 0 0 0 0 0 0 0 0 0 0 0 0 0 0 0 0
0 0 0 0 0 0 0 0 0 0 0 0 0 0 0 0 0 0 0 0 0 0 0 0 0 0 0 0 0 0 0 0 0 0 0 0 0 0 0 0 0 0 0 0
0 0 0 0 0 0 0 0 0 0 0 0 0 0 0 0 0 0 0 0 0 0 0 0 0 0 0 0 0 0 0 0 0 0 0 0 0 0 0 0 0 0 0 0
0 0 0 0 0 0 0 0 0 0 0 0 0 0 0 0 0 0 0 0 0 0 0 0 0 0 0 0 0 0 0 0 0 0 0 0 0 0 0 0 0 0 0 0
0 0 0 0 0 0 0 0 0 0 0 0 0 0 0 0 0 0 0 0 0 0 0 0 0 0 0 0 0 0 0 0 0 0 0 0 0 0 0 0 0 0 0 0
0 0 0 0 0 0 0 0 0 0 0 0 0 0 0 0 0 0 0 0 0 0 0 0 0 0 0 0 0 0 0 0 0 0 0 0 0 0 0 0 0 0 0 0
0 0 0 0 0 0 0 0 0 0 0 0 0 0 0 0 0 0 0 0 0 0 0 0 0 0 0 0 0 0 0 0 0 0 0 0 0 0 0 0 0 0 0 0
0 0 0 0 0 0 0 0 0 0 0 0 0 0 0 0 0 0 0 0 0 0 0 0 0 0 0 0 0 0 0 0 0 0 0 0 0 0 0 0 0 0 0 0
0 0 0 0 0 0 0 0 0 0 0 0 0 0 0 0 0 0 0 0 0 0 0 0 0 0 0 0 0 0 0 0 0 0 0 0 0 0 0 0 0 0 0 0
0 0 0 0 0 0 0 0 0 0 0 0 0 0 0 0 0 0 0 0 0 0 0 0 0 0 0 0 0 0 0 0 0 0 0 0 0 0 0 0 0 0 0 0
0 0 0 0 0 0 0 0 0 0 0 0 0 0 0 0 0 0 0 0 0 0 0 0 0 0 0 0 0 0 0 0 0 0 0 0 0 0 0 0 0 0 0 0
0 0 0 0 0 0 0 0 0 0 0 0 0 0 0 0 0 0 0 0 0 0 0 0 0 0 0 0 0 0 0 0 0 0 0 0 0 0 0 0 0 0 0 0
0 0 0 0 0 0 0 0 0 0 0 0 0 0 0 0 0 0 0 0 0 0 0 0 0 0 0 0 0 0 0 0 0 0 0 0 0 0 0 0 0 0 0 0
0 0 0 0 0 0 0 0 0 0 0 0 0 0 0 0 0 0 0 0 0 0 0 0 0 0 0 0 0 0 0 0 0 0 0 0 0 0 0 0 0 0 0 0
0 0 0 0 0 0 0 0 0 0 0 0 0 0 0 0 0 0 0 0 0 0 0 0 0 0 0 0 0 0 0 0 0 0 0 0 0 0 0 0 0 0 0 0
0 0 0 0 0 0 0 0 0 0 0 0 0 0 0 0 0 0 0 0 0 0 0 0 0 0 0 0 0 0 0 0 0 0 0 0 0 0 0 0 0 0 0 0
0 0 0 0 0 0 0 0 0 0 0 0 0 0 0 0 0 0 0 0 0 0 0 0 0 0 0 0 0 0 0 0 0 0 0 0 0 0 0 0 0 0 0 0
0 0 0 0 0 0 0 0 0 0 0 0 0 0 0 0 0 0 0 0 0 0 0 0 0 0 0 0 0 0 0 0 0 0 0 0 0 0 0 0 0 0 0 0
Wind_Speed
4 3 4 5 6 8 7 8 8 8 8 10 10 11 10 10 10 10 9 8 9 8 6 6 5 5 4 4 3 4 5 4 2 2 2 2 3 3 3 3 3 3 3 3
2 3 4 4 6 9 8 6 6 4 8 7 4 6 8 10 13 12 12 11 10 9 8 8 7 6 5 5 4 4 5 4 3 3 3 3 2 3 3 3 3 3 4 3
2 1 1 5 8 10 7 7 9 10 11 5 6 12 15 15 15 15 13 12 11 11 9 9 8 8 7 6 5 5 5 4 3 3 3 2 2 3 3 2 3 3 3 3
2 2 5 9 4 6 7 8 9 7 6 10 11 9 8 10 14 14 13 12 11 10 9 7 7 7 7 6 6 5 4 4 3 3 3 2 2 2 2 1 2 2 2 3
4 3 6 9 4 7 7 8 8 9 7 5 5 5 2 7 11 13 13 11 10 9 9 8 8 8 8 6 6 5 4 4 3 3 3 2 2 1 0 1 1 1 1 2
4 4 6 9 4 3 4 6 6 9 9 9 10 5 8 9 10 9 9 9 9 9 8 9 8 9 9 7 6 5 5 4 3 3 3 3 2 1 0 0 0 1 2 2
5 5 9 9 2 6 5 9 5 9 11 14 12 9 5 10 10 10 9 9 11 11 9 9 9 10 9 7 7 6 5 4 3 3 3 3 2 1 1 0 1 1 2 3
5 4 10 4 6 9 9 3 3 7 10 12 8 4 7 10 11 11 10 10 11 11 9 7 9 10 9 8 6 5 5 4 3 3 2 2 2 1 1 1 0 1 2 3
10 9 6 3 7 5 2 3 4 6 7 9 7 6 7 8 10 11 11 11 10 10 9 7 8 9 10 7 6 6 5 4 3 2 2 2 2 1 1 0 0 1 1 2
4 8 6 5 5 4 4 4 3 5 6 9 8 7 8 9 9 9 10 10 9 11 10 8 7 7 7 7 7 7 6 4 3 3 2 1 1 2 2 2 2 2 2 3
5 7 6 5 5 5 3 3 2 3 5 8 9 8 9 9 10 10 9 9 10 11 11 10 8 7 6 7 8 7 6 4 4 3 3 2 2 2 3 4 4 4 3 3
7 6 5 5 3 2 3 4 5 5 4 5 8 9 9 9 8 9 9 8 9 9 9 9 8 8 7 7 8 7 5 4 3 3 3 2 2 2 4 5 7 7 7 6
5 3 4 4 2 1 3 3 4 5 7 6 6 8 9 7 7 8 9 9 10 10 9 9 8 8 7 7 8 8 7 6 4 3 3 3 2 2 3 4 5 6 7 8
3 1 2 3 3 2 1 1 2 3 3 5 6 6 7 7 7 9 10 10 9 9 8 8 8 8 7 7 8 7 6 7 6 4 4 4 4 3 3 3 3 4 5 8
4 4 5 2 1 0 1 3 4 3 3 3 5 7 8 9 9 9 8 7 8 8 7 7 8 8 7 7 8 8 6 5 4 4 4 4 4 3 3 4 4 4 4 6
3 2 2 2 2 2 2 3 4 4 4 4 5 6 7 8 7 6 7 9 9 9 9 8 9 8 7 8 7 6 5 9 7 4 4 4 4 4 4 4 4 4 5 6
4 4 4 3 4 4 4 5 6 6 5 6 6 6 6 6 6 6 6 7 8 8 8 8 8 6 7 7 7 5 5 6 9 5 4 5 4 5 5 5 5 5 6 7
6 7 6 6 6 5 5 4 4 5 6 5 5 6 7 8 8 8 7 6 5 4 5 6 6 5 6 7 6 5 5 5 4 5 5 5 5 5 5 5 6 7 6 7
4 4 4 4 5 5 5 4 5 4 4 5 6 7 7 7 7 6 6 6 6 6 6 6 8 7 6 7 7 5 5 5 5 5 5 6 6 5 5 5 6 6 6 6
2 2 2 2 2 3 4 3 4 4 4 5 6 5 5 4 5 5 6 6 7 7 6 6 6 6 6 7 7 4 5 6 6 5 5 5 5 6 6 6 6 6 6 6
2 1 1 2 2 2 3 4 4 4 4 6 7 7 6 5 5 5 6 5 5 4 4 7 5 5 5 6 7 5 5 5 6 6 5 6 6 6 6 6 6 6 6 7
2 1 1 1 1 2 2 2 4 4 4 5 5 5 5 4 4 4 6 6 5 6 4 4 4 7 8 7 5 5 5 6 5 5 5 5 5 6 6 6 6 7 7 7
2 2 2 2 2 3 1 2 3 4 5 5 6 6 6 5 5 5 5 4 3 6 5 4 7 10 11 6 5 5 6 6 6 5 5 6 6 6 6 7 6 6 7 7
2 2 2 1 0 1 1 2 2 3 3 4 4 5 5 4 3 4 3 4 6 6 4 6 9 10 8 4 4 5 5 5 5 5 5 5 5 6 6 6 7 7 7 8
2 2 1 1 1 2 2 2 1 1 2 2 2 3 3 4 4 4 3 3 5 5 3 6 9 8 4 3 4 5 5 5 5 5 5 5 6 6 6 6 7 7 7 7
2 2 2 2 2 2 2 2 2 2 2 2 1 2 2 2 2 2 2 3 4 5 3 3 3 4 3 4 4 4 4 5 5 5 5 6 6 6 6 7 9 8 7 8
2 1 1 2 2 1 1 2 2 2 3 3 3 2 2 2 2 2 3 3 3 3 3 3 3 3 3 4 4 4 4 4 5 5 5 6 6 6 7 8 7 7 7 8
Wind_Direction
225 219 190 205 194 180 186 188 188 218 219 233 207 192 183 171 164 164 171 172 171 168 166 161 154 149 142 136 131 126 116 111 116 108 88 72 58 46 43 43 41 32 31 18
251 229 210 228 216 197 206 202 211 224 248 239 182 151 162 172 173 178 182 181 177 172 169 169 166 159 149 144 143 130 122 123 117 98 80 67 53 47 45 35 27 33 29 21
241 282 84 256 222 197 201 199 183 207 229 180 167 182 186 184 184 187 184 180 179 178 177 175 171 162 159 155 143 131 127 123 115 108 92 71 65 60 47 31 33 31 18 16
149 111 228 244 239 193 203 222 206 215 213 188 193 193 189 183 184 186 182 180 180 175 172 168 161 153 146 141 139 135 132 131 128 121 110 91 79 68 45 40 38 23 8 359
137 189 272 289 255 182 185 245 214 207 211 182 125 93 234 202 191 188 182 177 173 169 163 158 156 151 140 139 139 138 145 150 151 142 132 117 105 90 64 59 27 3 345 350
137 167 232 250 250 168 131 267 233 190 187 160 135 161 231 196 179 174 165 160 156 150 145 153 157 149 143 147 148 160 169 168 161 154 149 151 163 167 158 123 332 341 344 334
164 203 254 251 229 125 165 239 218 181 176 168 182 200 187 157 167 165 158 155 151 150 156 163 157 150 149 154 171 176 163 152 151 158 164 166 158 156 150 108 17 352 334 322
154 188 250 234 148 180 215 236 182 180 179 183 193 156 140 155 159 156 153 151 153 154 157 156 156 153 155 172 177 157 148 148 155 164 168 146 141 142 135 120 35 331 326 321
188 210 237 211 210 231 213 215 206 186 185 175 169 170 158 158 159 160 159 158 156 155 152 156 165 162 165 179 163 152 149 159 168 165 166 157 159 171 180 180 212 277 288 298
238 263 259 256 255 258 227 224 219 187 171 165 170 165 160 159 160 160 160 160 156 152 157 167 174 174 173 164 158 153 160 172 175 174 188 193 189 189 191 213 230 251 261 273
247 271 294 283 244 240 232 219 192 162 168 169 162 163 165 165 167 166 162 160 161 165 169 174 172 176 173 163 157 160 168 177 182 187 192 208 224 219 216 224 211 217 233 238
223 229 204 255 278 233 205 211 189 164 157 163 167 169 164 168 168 164 162 159 162 166 168 170 171 177 178 170 164 164 173 185 189 191 196 200 221 278 263 249 263 258 250 248
224 229 205 256 298 253 215 220 194 180 174 169 168 165 162 161 162 159 160 164 172 175 173 170 172 180 184 176 170 173 181 190 190 191 195 200 202 214 273 298 291 282 275 276
229 179 246 252 254 262 215 187 141 142 160 161 156 153 152 147 152 164 175 179 174 168 169 171 175 189 189 176 174 182 188 197 193 195 198 201 207 213 217 238 277 289 287 286
231 207 216 238 266 355 114 113 115 131 138 140 147 154 157 161 171 179 176 162 155 161 172 175 184 199 186 176 180 187 189 195 196 196 200 206 211 216 225 234 244 260 281 291
233 211 201 207 227 219 155 154 164 184 175 166 167 174 175 172 168 162 159 159 163 178 186 187 198 203 186 180 183 189 197 208 201 195 201 208 213 219 228 236 245 252 259 265
197 216 208 211 220 217 207 200 192 189 181 181 185 174 157 148 149 160 172 178 181 186 188 192 201 197 184 182 183 190 195 209 212 205 205 212 217 224 229 233 242 249 254 257
219 221 211 201 201 208 216 212 199 190 191 190 164 151 157 165 176 184 183 171 167 180 200 201 195 184 185 186 187 189 192 201 203 208 213 218 224 226 229 234 242 250 260 268
222 220 217 210 203 194 199 204 202 197 185 161 159 170 178 183 184 179 166 163 175 198 216 207 195 185 191 200 193 189 194 202 210 217 218 229 233 230 231 237 244 249 254 261
243 227 211 211 196 186 196 199 188 181 177 167 164 166 175 185 176 169 168 184 202 207 201 193 189 192 199 204 200 191 198 205 213 220 221 223 228 235 236 239 245 250 254 256
264 247 208 200 212 208 203 192 179 183 180 170 172 182 189 189 178 171 173 204 227 208 191 194 191 199 202 205 202 195 200 208 214 219 222 226 231 237 241 244 247 250 254 258
286 265 242 215 200 233 231 195 184 182 177 179 184 181 175 179 182 188 200 208 211 198 189 196 201 211 213 209 197 198 206 212 218 220 224 227 230 237 243 246 248 252 253 255
291 265 251 233 218 228 237 199 188 183 184 186 186 186 187 191 186 186 217 226 204 205 200 208 219 224 223 209 201 205 212 217 221 223 226 228 230 234 241 247 249 251 254 257
315 300 280 267 193 145 244 250 211 194 190 190 192 189 182 179 204 216 212 211 210 211 209 222 229 232 224 202 202 209 215 220 224 227 229 231 234 238 242 246 251 253 255 258
306 303 292 235 207 224 230 223 186 180 173 185 196 195 191 187 196 211 208 206 214 211 216 231 234 236 219 202 205 211 216 221 224 224 224 231 238 243 246 247 249 254 256 259
285 278 265 250 241 234 214 190 197 205 187 194 226 220 210 203 197 197 201 205 206 210 209 216 222 224 210 208 213 217 220 234 244 240 233 237 243 246 251 252 254 255 257 259
317 321 325 321 304 251 215 201 199 210 203 197 216 221 210 205 204 206 207 206 205 206 211 214 210 210 211 213 219 225 227 230 234 238 241 243 246 249 253 255 258 259 260 262